Theta_e
317 317 317 317 316 316 316 316 315 315 315 314 314 315 315 316 317 312 306 312 312 315 314 305 304 302 303 302 308 309 296 292 294 295 297 301 299 304 307 304 305 307 311 313 321
316 316 316 316 316 315 315 314 314 314 315 314 313 314 314 314 306 303 313 316 316 314 303 301 299 300 298 297 301 301 294 293 298 300 298 301 300 301 301 302 303 305 312 312 313
316 316 316 315 315 315 314 313 314 314 314 313 313 313 312 311 301 299 314 314 314 311 304 303 302 299 294 296 295 295 292 297 296 298 298 297 295 299 297 297 302 302 307 309 310
315 315 315 315 315 314 312 313 313 313 313 314 313 311 308 308 291 302 313 312 311 306 303 300 299 295 293 291 294 289 293 293 293 294 293 291 294 292 293 296 302 305 307 307 308
315 314 314 314 314 313 311 313 312 312 312 313 312 311 305 298 296 306 310 308 304 302 300 298 295 295 291 293 293 291 293 294 295 295 294 295 293 293 294 297 298 299 301 304 306
315 314 313 313 313 312 311 312 311 311 312 313 312 311 301 292 304 305 304 303 302 301 300 299 296 297 293 293 291 294 293 294 295 295 295 293 293 294 295 298 297 297 297 298 303
315 314 312 312 312 310 310 311 310 310 311 312 311 304 297 294 304 305 303 302 304 302 298 301 300 296 296 293 296 294 290 293 293 294 293 294 289 290 296 297 296 297 297 298 300
314 313 312 312 312 309 310 309 308 311 310 309 309 303 294 302 305 302 302 301 304 305 301 302 301 298 295 297 294 290 291 286 291 293 293 291 284 293 296 295 294 296 296 297 298
314 313 311 311 310 308 309 307 306 307 306 307 302 299 290 304 298 301 301 297 302 302 303 302 300 296 295 290 289 290 284 285 287 293 291 290 286 292 295 295 294 295 296 297 297
314 312 311 311 308 307 308 305 304 304 303 302 300 295 295 292 298 299 301 299 298 298 298 297 296 292 292 289 280 282 282 284 284 289 290 288 287 292 294 294 293 294 295 296 299
313 312 310 310 306 306 306 302 298 296 296 292 292 291 293 297 300 296 298 297 299 296 289 293 290 286 288 289 288 285 282 281 286 291 288 288 288 290 293 294 294 294 294 296 298
313 312 310 309 304 306 303 297 295 297 288 293 293 293 295 296 291 294 297 292 293 288 291 290 286 289 290 290 288 286 282 283 288 291 289 288 287 291 293 293 294 295 294 296 298
313 312 310 308 304 300 297 296 301 300 291 288 291 291 292 294 290 290 293 291 290 287 287 285 288 290 288 287 286 286 284 285 284 287 289 288 286 288 291 294 294 296 296 297 299
313 311 309 305 300 298 295 299 303 301 289 284 287 290 293 293 288 294 294 290 289 285 286 287 290 287 286 285 286 281 289 287 285 282 278 286 278 284 287 286 288 289 296 297 300
313 311 306 301 298 295 296 301 303 299 284 286 286 295 293 289 288 290 295 290 284 284 286 285 285 284 283 286 287 284 289 286 285 282 282 283 279 281 284 281 283 287 291 294 297
312 309 305 301 301 297 300 302 299 288 279 282 286 286 287 288 287 290 290 292 289 285 287 286 290 287 286 288 290 290 287 288 288 283 277 280 280 277 278 280 282 285 287 288 290
311 304 302 300 295 300 301 296 288 284 285 281 281 285 285 283 284 285 284 281 279 277 278 284 285 288 288 286 290 287 284 279 277 277 276 282 280 278 281 282 282 282 284 285 286
308 300 299 299 300 299 295 293 284 280 280 284 283 284 281 283 283 283 283 281 283 281 278 276 277 284 287 285 282 283 284 277 271 274 277 282 275 279 284 284 284 283 283 284 284
304 308 301 301 298 296 294 285 281 281 282 282 284 281 281 283 282 282 280 280 282 281 275 275 277 285 287 287 287 283 280 283 279 281 277 280 281 283 284 282 283 280 281 282 283
305 302 300 299 298 295 293 283 283 284 284 283 279 281 278 280 279 280 280 281 281 283 283 279 273 283 285 289 288 285 286 278 281 273 272 278 276 275 278 278 281 279 279 281 283
298 301 299 298 298 295 286 283 283 286 285 282 280 279 280 279 277 277 279 282 283 282 284 281 276 279 285 282 280 282 280 281 280 279 274 273 276 281 279 280 279 279 280 281 282
297 298 300 297 293 291 287 283 284 284 286 284 284 282 280 280 277 277 278 280 284 284 279 281 277 274 279 285 286 284 281 280 275 275 279 277 277 284 282 282 281 280 281 283 283
302 301 301 297 287 289 284 283 284 283 284 283 282 283 284 280 276 280 281 285 285 282 280 281 277 273 279 282 284 280 282 281 280 279 277 275 277 286 285 283 282 280 281 283 284
302 293 298 293 289 287 284 282 281 285 284 284 283 284 281 280 282 278 280 283 285 283 283 282 277 274 273 276 279 276 278 280 279 277 275 277 277 282 282 281 281 281 281 282 283
301 294 294 287 289 285 283 283 281 280 284 284 282 282 281 276 276 277 280 282 283 283 282 280 274 277 277 278 278 277 277 278 277 279 276 278 277 281 282 281 280 281 281 282 282
298 294 292 288 284 284 283 283 282 282 282 280 280 282 282 278 280 276 279 280 279 281 278 278 276 276 274 279 278 275 277 279 278 279 280 280 280 284 284 284 282 280 280 281 281
295 294 297 287 285 284 287 286 282 284 284 284 283 282 280 282 285 285 285 284 283 280 278 276 275 274 274 277 273 274 277 278 278 280 280 279 281 284 283 283 282 281 280 280 281
Wind_Speed
17 17 18 18 18 18 18 18 18 16 12 9 8 8 9 12 11 10 16 14 17 17 18 13 11 10 3 2 4 3 7 10 14 16 13 3 6 7 9 13 12 6 9 9 12
18 18 19 18 19 18 18 19 18 16 12 8 6 8 11 13 4 18 14 16 16 15 13 14 15 13 2 2 2 7 9 10 8 10 9 12 7 14 12 14 9 11 7 6 13
18 19 20 20 20 20 19 20 18 13 11 8 6 6 7 9 2 10 17 17 15 14 11 10 10 7 5 3 1 3 9 12 11 11 12 15 18 17 18 19 17 15 9 12 16
19 20 21 20 21 20 20 20 14 9 11 9 8 5 4 9 3 11 14 15 15 12 11 9 10 8 5 4 2 9 10 9 11 11 14 16 17 18 19 21 20 22 17 18 17
19 21 21 21 21 20 21 20 11 8 8 8 7 5 8 6 8 10 12 16 15 13 9 9 9 7 6 8 9 12 13 9 11 13 14 17 20 21 22 19 21 23 24 20 18
19 20 21 22 21 20 21 17 10 9 7 8 9 10 4 8 7 12 14 18 14 11 9 6 6 7 9 7 8 10 13 16 18 19 18 19 22 20 20 19 20 20 23 24 22
20 21 22 22 22 20 21 13 10 8 6 7 10 6 15 8 6 13 15 16 10 8 7 5 6 6 6 9 5 10 16 17 18 12 11 11 19 24 24 19 18 21 21 22 23
20 21 21 22 22 21 21 10 7 5 7 7 9 6 6 4 8 16 18 16 8 6 3 4 3 6 5 8 12 14 15 10 2 8 12 6 22 18 13 13 16 18 19 20 22
20 21 21 21 20 22 20 6 5 4 7 8 4 6 5 1 17 12 17 16 10 3 1 1 3 4 3 7 11 7 11 19 20 15 11 13 22 17 16 18 18 18 18 18 20
20 21 21 21 16 22 15 4 6 5 5 3 6 4 6 13 11 11 19 9 5 5 6 3 3 6 6 6 11 15 19 20 21 17 16 18 28 28 22 22 23 23 22 20 18
19 21 22 20 13 21 12 5 4 3 14 8 6 5 8 16 4 17 22 10 7 7 7 2 7 6 11 10 12 15 16 19 24 19 17 20 24 25 22 21 21 20 20 19 18
18 20 21 18 8 16 8 6 5 5 6 6 4 6 4 14 9 20 23 11 8 9 10 5 1 6 10 10 12 14 17 20 19 13 18 20 25 25 20 20 20 22 17 19 19
17 19 21 17 5 4 12 9 4 2 3 4 4 5 7 9 8 17 19 12 9 11 10 7 7 9 12 13 13 16 18 17 19 20 22 15 16 6 8 16 17 14 15 17 17
16 18 18 19 4 4 5 8 2 2 3 7 6 6 7 5 2 12 14 6 6 10 10 4 7 10 14 12 15 13 10 17 20 14 9 4 7 4 12 11 19 20 17 13 12
13 17 15 11 5 4 7 4 1 4 2 8 4 4 5 9 10 17 11 5 7 13 6 8 9 13 11 6 15 11 21 21 19 15 12 2 6 8 14 14 19 15 11 12 11
12 15 13 2 1 4 4 2 4 1 4 3 4 9 9 9 5 12 11 13 1 7 7 9 8 4 4 16 16 13 19 22 5 4 5 6 5 11 12 19 16 14 15 12 13
10 9 6 3 6 6 3 4 1 5 3 7 6 9 8 10 6 12 5 12 12 11 13 15 1 5 8 16 10 19 16 6 4 2 4 6 4 9 12 16 14 16 14 13 14
9 5 2 3 4 3 4 3 6 2 3 3 5 9 5 10 5 12 9 9 13 12 10 8 3 12 14 10 10 14 8 7 8 9 11 7 7 6 8 11 16 15 12 15 15
7 2 2 4 4 3 5 6 4 2 3 7 7 5 3 4 7 9 5 7 8 11 8 8 6 12 10 11 8 10 11 10 7 12 6 3 5 6 16 17 10 14 17 16 15
3 4 1 7 4 5 3 3 2 2 2 2 5 4 5 9 9 9 7 3 6 6 4 5 10 8 13 8 3 8 10 5 4 7 7 4 4 8 19 18 15 16 16 15 15
2 4 4 5 3 2 4 3 2 3 1 3 3 3 4 4 4 5 4 1 4 8 2 6 3 9 12 6 9 8 8 5 5 5 6 7 6 7 10 12 13 11 11 12 12
1 3 3 3 1 2 2 2 2 5 2 2 3 2 3 2 3 4 4 3 2 8 5 3 5 7 7 8 2 4 10 7 5 7 5 4 5 9 6 7 9 10 10 9 9
1 3 3 4 2 1 2 2 2 4 3 2 3 4 1 2 4 5 3 1 2 5 5 6 2 8 2 4 3 4 9 13 10 4 4 6 5 11 12 11 10 10 9 9 8
2 2 2 4 1 1 2 2 3 2 2 3 3 3 3 4 5 5 5 1 3 2 4 3 4 6 7 9 12 10 16 13 8 4 8 4 9 13 13 10 10 10 8 8 8
2 2 2 2 2 3 1 3 4 4 4 5 4 9 5 2 2 4 4 7 1 2 4 3 5 5 15 20 16 14 12 9 7 6 5 7 7 9 10 8 7 7 7 7 8
2 3 1 2 3 3 3 6 7 4 7 5 6 2 8 5 3 3 2 3 4 1 1 2 4 9 6 2 3 11 14 8 6 6 7 5 3 5 7 5 7 4 6 6 7
2 1 1 4 4 3 4 4 8 7 6 3 7 4 8 12 10 9 7 8 8 4 2 3 5 7 5 4 7 4 1 2 4 4 4 5 5 6 7 9 8 5 5 7 7
Wind_Direction
10 7 3 0 358 354 352 349 349 348 352 350 345 344 329 321 288 51 41 10 358 351 323 347 359 348 288 269 284 288 251 256 263 273 280 121 333 304 340 287 275 300 309 6 4
9 5 2 358 356 354 351 349 348 348 348 357 346 331 320 320 69 53 10 357 349 343 351 357 355 345 309 299 239 253 251 278 19 338 315 312 302 303 305 301 262 285 205 354 339
9 5 1 358 355 353 351 348 345 347 3 2 352 328 308 292 232 30 4 359 350 325 335 334 334 335 308 318 24 302 266 310 323 308 303 295 290 278 281 270 268 272 314 318 321
6 2 359 356 354 351 350 346 346 349 3 6 358 349 288 235 17 20 353 340 337 324 318 328 336 341 309 313 359 280 263 289 304 299 294 286 294 286 277 275 284 288 293 292 297
6 0 357 354 352 349 349 347 355 355 348 3 357 310 272 67 32 354 342 339 326 330 319 328 316 332 306 316 304 266 286 308 302 291 283 288 277 275 269 272 265 266 269 267 271
6 0 356 353 350 348 349 350 357 356 4 1 345 288 249 73 342 356 352 333 341 332 317 286 298 327 289 286 281 323 305 293 289 283 281 279 278 276 268 261 260 260 264 264 258
4 1 357 352 347 347 349 353 358 15 25 12 343 326 61 47 348 351 351 343 347 338 318 326 290 258 340 282 324 286 287 288 277 289 261 295 273 256 267 269 271 271 262 263 260
4 1 358 351 345 343 346 348 353 18 6 335 310 283 64 44 352 351 349 348 345 331 305 319 255 270 272 309 276 270 267 277 177 242 278 248 270 285 307 303 279 266 263 263 260
2 359 357 352 344 341 344 331 351 341 336 305 265 307 57 225 353 337 359 335 321 2 28 334 241 299 234 276 295 194 301 304 303 308 259 233 281 287 291 288 275 269 269 267 258
358 357 356 353 347 340 342 291 323 231 255 260 37 168 63 351 338 301 358 340 325 316 235 259 256 257 241 292 312 315 307 305 300 307 290 271 270 281 284 278 272 268 262 260 261
355 355 355 356 352 338 329 224 222 163 38 41 41 33 341 350 256 5 352 330 314 239 347 20 270 3 346 332 315 304 297 292 293 298 285 282 282 283 286 284 271 261 260 254 252
352 352 352 352 357 348 7 50 47 359 88 45 67 15 4 337 333 1 355 10 337 339 341 226 283 4 324 310 309 303 289 284 294 323 319 295 287 287 295 294 263 263 256 250 248
347 351 348 348 299 323 50 37 336 304 261 63 38 348 351 331 11 0 4 329 338 335 350 303 353 334 322 315 323 311 295 299 310 320 294 296 287 15 345 9 351 289 245 254 242
342 350 350 331 264 347 51 343 323 304 211 20 7 47 344 337 206 23 8 357 339 330 333 297 327 319 323 315 342 310 319 317 308 316 308 24 298 41 358 358 354 341 300 229 245
341 349 349 4 333 21 331 322 248 241 199 15 12 320 359 30 335 13 16 354 346 330 308 8 332 330 317 315 325 280 306 301 288 283 283 31 259 25 12 348 344 334 350 32 20
343 351 329 229 223 16 309 221 234 226 38 38 352 353 355 28 26 350 22 6 279 320 289 316 286 289 250 299 308 325 307 303 282 252 232 345 311 49 11 340 338 345 16 20 43
340 353 340 329 343 341 243 226 23 57 122 4 340 339 329 355 356 3 52 49 34 345 357 326 329 348 342 331 334 352 337 318 314 298 7 346 14 54 0 2 353 357 11 17 30
336 315 53 45 331 289 248 252 59 45 1 11 327 314 5 3 18 359 355 23 35 5 302 344 316 15 344 348 309 310 350 337 315 343 327 61 12 64 24 15 4 359 23 28 36
310 284 257 19 336 272 277 45 14 46 347 329 296 297 45 40 340 346 62 16 31 19 357 339 286 337 339 329 343 340 352 309 272 266 256 13 87 132 6 14 19 12 22 26 29
328 309 357 340 320 259 45 95 46 58 352 311 344 358 328 356 342 3 1 28 1 53 1 356 291 310 332 307 360 329 359 335 315 328 322 52 52 9 350 353 9 21 14 20 22
3 289 73 352 265 31 71 56 101 103 36 328 319 304 313 330 340 317 326 226 16 353 312 310 250 305 301 28 353 356 12 351 274 304 320 324 60 17 353 360 3 16 14 17 26
280 297 39 325 3 12 53 122 65 154 171 225 277 274 279 325 267 273 284 268 3 338 328 355 300 287 294 342 29 338 20 357 333 343 321 271 51 5 29 9 24 26 23 25 29
272 282 74 295 81 82 144 158 218 179 210 204 242 235 237 258 283 235 293 151 256 337 3 349 165 300 180 171 179 5 339 346 324 237 8 326 30 33 41 17 27 19 16 31 34
224 284 94 51 352 193 189 201 194 194 232 227 262 236 246 261 217 292 288 324 332 301 18 293 266 262 287 310 311 300 317 332 331 298 337 33 317 8 24 28 5 13 21 28 45
260 256 17 243 176 128 46 211 183 202 218 211 237 229 195 257 268 240 285 301 187 89 343 341 270 281 279 284 282 279 290 304 319 342 323 358 338 353 10 24 357 342 14 27 35
208 174 166 123 126 138 156 216 205 160 178 210 225 243 205 223 248 299 342 272 289 113 325 310 277 321 289 292 278 294 291 287 277 294 278 307 352 353 355 27 96 26 360 30 41
134 359 228 146 165 186 213 214 205 160 201 227 220 218 228 247 275 290 263 259 269 283 292 289 328 335 280 326 317 241 246 269 296 256 312 312 21 351 357 3 15 43 29 10 14